User: anonymous   Login
Location: Noordwijk
(52.2400°N, 4.4500°E)
Time: 11:12:00
(UTC+00:00)
Language:

XW-2D - Orbit

View from above orbital plane
View from above orbital plane
View from above satellite
View from above satellite

Ground track
Ground track

The orbit data is extracted from the following two-line orbital elements,

1 40907U 15049J   22334.10878602  .00006491  00000-0  28703-3 0  9998
2 40907  97.4945 336.5830 0013586 128.7914 302.8209 15.21960178398142
Epoch (UTC): 30 November 2022 02:36:39
Eccentricity: 0.0013586
inclination: 97.4945°
perigee height: 490 km
apogee height: 509 km
right ascension of ascending node: 336.5830°
argument of perigee: 128.7914°
revolutions per day: 15.21960178
mean anomaly at epoch: 302.8209°
orbit number at epoch: 39814

The dashed part of the orbit path shows where the satellite is in the earth's shadow,  

DLR